WZZ29E LBSF-LIME

Flight info

Callsign WZZ29E
Flight time 1h 33m
Altitude 36000
Route OGOTA4S/09 OGOTA L615 OBLAK DCT BAXON DCT BOA DCT OGPUD DCT BETMU DCT OSBUL
Aircraft A21N/M-SDE1E2E3FGIJ1J4RWXY/LB1

Departure

Time 2026-05-04 16:09
Airport Sofia Airport (LBSF)

Arrival

Time 2026-05-04 17:43
Airport Il Caravaggio International Airport (LIME)
Time Latitude Longitude Altitude Speed Heading
2026-05-04 15:47 42.69089 23.40255 1760 ft 0 kts 198°
2026-05-04 15:50 42.69088 23.40255 1760 ft 0 kts 198°
2026-05-04 15:50 42.69087 23.40254 1760 ft 0 kts 198°
2026-05-04 15:51 42.69083 23.40253 1760 ft 1 kts 198°
2026-05-04 15:52 42.69073 23.40248 1760 ft 2 kts 197°
2026-05-04 15:52 42.69054 23.40244 1760 ft 3 kts 178°
2026-05-04 15:52 42.69037 23.40262 1760 ft 3 kts 111°
2026-05-04 15:52 42.69047 23.40293 1760 ft 4 kts 26°
2026-05-04 15:53 42.69078 23.40304 1760 ft 5 kts 33°
2026-05-04 15:53 42.69118 23.40331 1760 ft 7 kts 17°
2026-05-04 15:53 42.69182 23.40358 1760 ft 11 kts 16°
2026-05-04 15:53 42.69267 23.40392 1760 ft 12 kts 15°
2026-05-04 15:54 42.69352 23.40425 1760 ft 12 kts 16°
2026-05-04 15:54 42.69440 23.40460 1760 ft 13 kts 15°
2026-05-04 15:54 42.69517 23.40511 1760 ft 12 kts 65°
2026-05-04 15:54 42.69521 23.40629 1760 ft 12 kts 94°
2026-05-04 15:55 42.69514 23.40746 1760 ft 12 kts 94°
2026-05-04 15:55 42.69506 23.40877 1760 ft 16 kts 95°
2026-05-04 15:55 42.69495 23.41060 1760 ft 21 kts 94°
2026-05-04 15:55 42.69483 23.41260 1760 ft 20 kts 94°
2026-05-04 15:56 42.69472 23.41447 1760 ft 14 kts 95°
2026-05-04 15:56 42.69423 23.41524 1760 ft 11 kts 175°
2026-05-04 15:56 42.69341 23.41517 1760 ft 11 kts 185°
2026-05-04 15:56 42.69258 23.41516 1760 ft 12 kts 166°
2026-05-04 15:57 42.69175 23.41550 1760 ft 12 kts 162°
2026-05-04 15:57 42.69098 23.41591 1760 ft 11 kts 142°
2026-05-04 15:57 42.69095 23.41725 1760 ft 18 kts 73°
2026-05-04 15:57 42.69134 23.41893 1760 ft 18 kts 71°
2026-05-04 15:58 42.69169 23.42056 1760 ft 17 kts 76°
2026-05-04 15:58 42.69203 23.42213 1760 ft 17 kts 71°
2026-05-04 15:58 42.69231 23.42336 1760 ft 11 kts 69°
2026-05-04 15:58 42.69287 23.42412 1760 ft 11 kts 20°
2026-05-04 15:59 42.69326 23.42419 1760 ft 2 kts
2026-05-04 15:59 42.69338 23.42421 1760 ft 0 kts
2026-05-04 15:59 42.69339 23.42421 1760 ft 0 kts
2026-05-04 16:03 42.69344 23.42421 1760 ft 2 kts
2026-05-04 16:03 42.69373 23.42426 1760 ft 6 kts 15°
2026-05-04 16:03 42.69405 23.42490 1760 ft 14 kts 83°
2026-05-04 16:03 42.69400 23.42648 1760 ft 16 kts 94°
2026-05-04 16:04 42.69391 23.42806 1760 ft 16 kts 94°
2026-05-04 16:04 42.69372 23.43119 1760 ft 16 kts 94°
2026-05-04 16:04 42.69364 23.43272 1760 ft 16 kts 94°
2026-05-04 16:05 42.69355 23.43426 1760 ft 16 kts 94°
2026-05-04 16:05 42.69345 23.43578 1760 ft 16 kts 94°
2026-05-04 16:05 42.69329 23.43873 1760 ft 11 kts 87°
2026-05-04 16:06 42.69370 23.43940 1760 ft 6 kts 14°
2026-05-04 16:06 42.69459 23.43952 1759 ft 7 kts
2026-05-04 16:07 42.69512 23.43921 1759 ft 7 kts 281°
2026-05-04 16:07 42.69519 23.43842 1759 ft 7 kts 275°
2026-05-04 16:08 42.69544 23.43435 1759 ft 79 kts 275°
2026-05-04 16:08 42.69817 23.39068 2265 ft 192 kts 277°
2026-05-04 16:09 42.70806 23.35923 3708 ft 186 kts 314°
2026-05-04 16:09 42.73315 23.34706 4438 ft 210 kts 359°
2026-05-04 16:10 42.75874 23.36938 5019 ft 252 kts 63°
2026-05-04 16:11 42.74344 23.43652 6870 ft 286 kts 145°
2026-05-04 16:11 42.72469 23.44573 7600 ft 292 kts 171°
2026-05-04 16:12 42.66547 23.42211 9567 ft 308 kts 217°
2026-05-04 16:12 42.64750 23.34258 10920 ft 322 kts 293°
2026-05-04 16:13 42.67774 23.30098 11818 ft 315 kts 345°
2026-05-04 16:13 42.72047 23.29858 13029 ft 310 kts
2026-05-04 16:14 42.76537 23.30119 13623 ft 335 kts
2026-05-04 16:14 42.81381 23.30393 14091 ft 360 kts
2026-05-04 16:15 42.89256 23.30839 14714 ft 393 kts
2026-05-04 16:16 42.94868 23.31155 15120 ft 411 kts
2026-05-04 16:16 43.03548 23.31345 16181 ft 425 kts 353°
2026-05-04 16:17 43.08635 23.27049 16888 ft 445 kts 314°
2026-05-04 16:18 43.14357 23.16855 17935 ft 452 kts 310°
2026-05-04 16:18 43.16270 23.13496 18252 ft 455 kts 311°
2026-05-04 16:19 43.22214 23.03197 19195 ft 461 kts 311°
2026-05-04 16:19 43.26091 22.96183 19739 ft 467 kts 304°
2026-05-04 16:20 43.30594 22.84248 20608 ft 473 kts 298°
2026-05-04 16:20 43.33602 22.76170 21109 ft 476 kts 299°
2026-05-04 16:21 43.38175 22.64207 22374 ft 467 kts 299°
2026-05-04 16:22 43.41192 22.56349 23093 ft 465 kts 298°
2026-05-04 16:22 43.45712 22.44515 23875 ft 469 kts 298°
2026-05-04 16:23 43.49295 22.31950 24684 ft 472 kts 284°
2026-05-04 16:24 43.51881 22.14177 25769 ft 474 kts 281°
2026-05-04 16:25 43.53137 22.05263 26309 ft 475 kts 281°
2026-05-04 16:26 43.55647 21.87463 27379 ft 474 kts 282°
2026-05-04 16:26 43.57521 21.74090 27884 ft 480 kts 283°
2026-05-04 16:27 43.58786 21.64998 28024 ft 486 kts 283°
2026-05-04 16:28 43.60693 21.51175 28152 ft 494 kts 283°
2026-05-04 16:28 43.62593 21.37263 28636 ft 492 kts 284°
2026-05-04 16:29 43.65067 21.18975 29347 ft 488 kts 284°
2026-05-04 16:30 43.66901 21.05249 29964 ft 483 kts 284°
2026-05-04 16:31 43.68111 20.96153 30352 ft 481 kts 284°
2026-05-04 16:31 43.69889 20.82665 30918 ft 477 kts 284°
2026-05-04 16:32 43.71649 20.69165 31480 ft 474 kts 284°
2026-05-04 16:33 43.72800 20.60271 31840 ft 472 kts 284°
2026-05-04 16:33 43.73942 20.51386 32196 ft 471 kts 284°
2026-05-04 16:34 43.75093 20.42564 32647 ft 467 kts 284°
2026-05-04 16:34 43.75647 20.38158 32766 ft 467 kts 284°
2026-05-04 16:35 43.77308 20.24860 33238 ft 465 kts 284°
2026-05-04 16:35 43.78945 20.11722 33725 ft 462 kts 284°
2026-05-04 16:36 43.79489 20.07340 33877 ft 461 kts 284°
2026-05-04 16:36 43.80561 19.98672 34177 ft 460 kts 283°
2026-05-04 16:37 43.81632 19.89958 34482 ft 458 kts 283°
2026-05-04 16:37 43.82164 19.85604 34596 ft 458 kts 284°
2026-05-04 16:37 43.83223 19.76913 34811 ft 458 kts 283°
2026-05-04 16:38 43.84272 19.68231 35023 ft 457 kts 283°
2026-05-04 16:39 43.85823 19.55290 35317 ft 457 kts 283°
2026-05-04 16:39 43.86854 19.46613 35491 ft 457 kts 283°
2026-05-04 16:40 43.87874 19.37983 35662 ft 456 kts 283°
2026-05-04 16:40 43.88894 19.29276 35823 ft 456 kts 282°
2026-05-04 16:41 43.89901 19.20633 35973 ft 455 kts 282°
2026-05-04 16:41 43.91400 19.07642 36121 ft 455 kts 282°
2026-05-04 16:43 43.93856 18.86073 36130 ft 454 kts 282°
2026-05-04 16:43 43.95309 18.73126 36124 ft 454 kts 282°
2026-05-04 16:45 43.98174 18.47211 36130 ft 453 kts 282°
2026-05-04 16:46 44.00507 18.25672 36106 ft 452 kts 281°
2026-05-04 16:47 44.02338 18.08492 36103 ft 451 kts 281°
2026-05-04 16:48 44.04140 17.91329 36116 ft 450 kts 281°
2026-05-04 16:49 44.05920 17.74132 36129 ft 450 kts 281°
2026-05-04 16:50 44.07666 17.56986 36133 ft 449 kts 281°
2026-05-04 16:51 44.08962 17.44117 36118 ft 448 kts 280°
2026-05-04 16:52 44.10649 17.27095 36141 ft 448 kts 280°
2026-05-04 16:53 44.11905 17.14256 36142 ft 447 kts 279°
2026-05-04 16:54 44.13557 16.97138 36146 ft 446 kts 279°
2026-05-04 16:55 44.15989 16.71413 36083 ft 442 kts 279°
2026-05-04 16:56 44.16771 16.63010 35259 ft 440 kts 279°
2026-05-04 16:56 44.17941 16.50298 35128 ft 442 kts 279°
2026-05-04 16:57 44.19097 16.37585 35124 ft 442 kts 279°
2026-05-04 16:58 44.20608 16.20720 35112 ft 442 kts 278°
2026-05-04 17:00 44.22845 15.95204 35099 ft 443 kts 278°
2026-05-04 17:01 44.24667 15.73912 35105 ft 443 kts 278°
2026-05-04 17:02 44.26102 15.56810 35470 ft 443 kts 278°
2026-05-04 17:02 44.26802 15.48332 35747 ft 442 kts 277°
2026-05-04 17:03 44.27152 15.44078 35889 ft 441 kts 277°
2026-05-04 17:03 44.27499 15.39830 35998 ft 441 kts 277°
2026-05-04 17:03 44.28188 15.31345 36078 ft 441 kts 277°
2026-05-04 17:04 44.29552 15.14315 36083 ft 442 kts 277°
2026-05-04 17:05 44.30884 14.97343 36076 ft 442 kts 276°
2026-05-04 17:06 44.31871 14.84548 36074 ft 442 kts 276°
2026-05-04 17:07 44.32737 14.73181 36070 ft 442 kts 276°
2026-05-04 17:07 44.33482 14.63266 36070 ft 442 kts 276°
2026-05-04 17:08 44.34432 14.50468 36070 ft 441 kts 276°
2026-05-04 17:09 44.35051 14.42006 36068 ft 442 kts 276°
2026-05-04 17:09 44.35669 14.33482 36068 ft 431 kts 276°
2026-05-04 17:10 44.37135 14.12913 36069 ft 425 kts 276°
2026-05-04 17:11 44.37709 14.04705 36072 ft 425 kts 276°
2026-05-04 17:12 44.38556 13.92437 36074 ft 425 kts 275°
2026-05-04 17:13 44.39941 13.71954 36058 ft 423 kts 275°
2026-05-04 17:14 44.41021 13.55643 36054 ft 423 kts 275°
2026-05-04 17:15 44.41816 13.43362 36051 ft 422 kts 275°
2026-05-04 17:16 44.42862 13.27009 36048 ft 422 kts 274°
2026-05-04 17:17 44.43882 13.10754 36042 ft 421 kts 274°
2026-05-04 17:18 44.44878 12.94500 36035 ft 421 kts 274°
2026-05-04 17:18 44.45367 12.86357 36251 ft 421 kts 274°
2026-05-04 17:19 44.45852 12.78283 36053 ft 419 kts 275°
2026-05-04 17:19 44.47860 12.70674 36030 ft 423 kts 297°
2026-05-04 17:20 44.50707 12.63510 36036 ft 422 kts 296°
2026-05-04 17:20 44.54666 12.52361 36024 ft 431 kts 292°
2026-05-04 17:21 44.56279 12.44280 36029 ft 434 kts 280°
2026-05-04 17:21 44.57359 12.35998 36024 ft 434 kts 279°
2026-05-04 17:22 44.58421 12.27701 36023 ft 434 kts 279°
2026-05-04 17:23 44.60545 12.11097 36023 ft 433 kts 279°
2026-05-04 17:24 44.62876 11.98900 35548 ft 437 kts 294°
2026-05-04 17:24 44.67642 11.87898 33653 ft 446 kts 300°
2026-05-04 17:25 44.69294 11.84213 32986 ft 449 kts 300°
2026-05-04 17:25 44.72604 11.76777 31585 ft 455 kts 300°
2026-05-04 17:26 44.75958 11.69191 30164 ft 462 kts 300°
2026-05-04 17:26 44.81075 11.57563 28079 ft 470 kts 300°
2026-05-04 17:27 44.84495 11.49761 26931 ft 474 kts 300°
2026-05-04 17:27 44.87955 11.41846 25749 ft 479 kts 300°
2026-05-04 17:28 44.91468 11.33787 24578 ft 482 kts 300°
2026-05-04 17:29 44.96732 11.22025 22987 ft 480 kts 304°
2026-05-04 17:29 45.02697 11.10899 21373 ft 469 kts 306°
2026-05-04 17:30 45.08387 11.00184 19709 ft 443 kts 305°
2026-05-04 17:31 45.12087 10.93128 18686 ft 450 kts 305°
2026-05-04 17:31 45.17617 10.82530 16890 ft 441 kts 305°
2026-05-04 17:32 45.21222 10.75598 15654 ft 437 kts 304°
2026-05-04 17:33 45.26555 10.65307 13804 ft 430 kts 304°
2026-05-04 17:33 45.28322 10.61887 13310 ft 428 kts 304°
2026-05-04 17:34 45.33502 10.51693 11795 ft 418 kts 302°
2026-05-04 17:34 45.35106 10.48318 11298 ft 415 kts 302°
2026-05-04 17:35 45.39849 10.38282 9891 ft 397 kts 303°
2026-05-04 17:35 45.42856 10.31947 8954 ft 382 kts 303°
2026-05-04 17:35 45.44322 10.28857 8486 ft 375 kts 302°
2026-05-04 17:36 45.45753 10.25842 8106 ft 357 kts 303°
2026-05-04 17:36 45.47089 10.23025 7733 ft 334 kts 302°
2026-05-04 17:36 45.48355 10.20354 7360 ft 315 kts 302°
2026-05-04 17:36 45.49551 10.17826 7015 ft 296 kts 302°
2026-05-04 17:37 45.50652 10.15497 6728 ft 281 kts 302°
2026-05-04 17:37 45.51743 10.13187 6439 ft 277 kts 302°
2026-05-04 17:37 45.52811 10.10920 6152 ft 276 kts 302°
2026-05-04 17:37 45.53878 10.08651 5864 ft 274 kts 302°
2026-05-04 17:38 45.54935 10.06407 5576 ft 273 kts 302°
2026-05-04 17:38 45.55993 10.04157 5285 ft 272 kts 302°
2026-05-04 17:38 45.57031 10.01948 5005 ft 271 kts 303°
2026-05-04 17:38 45.57993 9.99902 4738 ft 270 kts 303°
2026-05-04 17:39 45.60128 9.95351 4144 ft 267 kts 303°
2026-05-04 17:39 45.61140 9.93189 3845 ft 255 kts 303°
2026-05-04 17:39 45.62103 9.91138 3551 ft 249 kts 303°
2026-05-04 17:40 45.63042 9.89059 3268 ft 245 kts 298°
2026-05-04 17:40 45.63732 9.86855 2977 ft 241 kts 288°
2026-05-04 17:40 45.64226 9.84617 2614 ft 229 kts 284°
2026-05-04 17:40 45.64607 9.82518 2286 ft 210 kts 283°
2026-05-04 17:41 45.64952 9.80576 1994 ft 191 kts 284°
2026-05-04 17:41 45.65276 9.78823 1689 ft 176 kts 284°
2026-05-04 17:41 45.65579 9.77199 1449 ft 159 kts 284°
2026-05-04 17:41 45.65846 9.75754 1239 ft 142 kts 285°
2026-05-04 17:42 45.66096 9.74421 1074 ft 140 kts 284°
2026-05-04 17:42 45.66345 9.73068 894 ft 139 kts 285°
2026-05-04 17:42 45.66588 9.71755 776 ft 131 kts 284°
2026-05-04 17:42 45.66781 9.70708 792 ft 84 kts 285°
2026-05-04 17:43 45.66884 9.70148 793 ft 27 kts 286°
2026-05-04 17:43 45.66886 9.69991 792 ft 10 kts 248°
2026-05-04 17:43 45.66846 9.69899 791 ft 11 kts 237°
2026-05-04 17:43 45.66821 9.69835 791 ft 5 kts 241°
2026-05-04 17:44 45.66814 9.69815 791 ft 0 kts 241°
2026-05-04 17:44 45.66807 9.69802 791 ft 1 kts 219°
2026-05-04 17:44 45.66783 9.69820 790 ft 6 kts 125°
2026-05-04 17:44 45.66765 9.69896 790 ft 9 kts 104°
2026-05-04 17:45 45.66745 9.69996 791 ft 10 kts 105°
2026-05-04 17:45 45.66725 9.70105 791 ft 11 kts 105°
2026-05-04 17:45 45.66707 9.70143 790 ft 1 kts 156°
2026-05-04 17:45 45.66701 9.70145 790 ft 0 kts 169°
2026-05-04 17:46 45.66692 9.70143 790 ft 2 kts 192°
2026-05-04 17:46 45.66667 9.70134 790 ft 4 kts 196°
2026-05-04 17:46 45.66640 9.70123 789 ft 0 kts 195°
2026-05-04 17:46 45.66636 9.70121 789 ft 0 kts 195°